Zurück zum Katalog

TITAN 3C TRANSTAGE DEB

LostHEO
NORAD 28817·DEBRIS·🇺🇸 United States

Gestartet Dec 21, 1965 von Cape Canaveral Space Force Station

Loading…

Nächste Überflüge (nächste 24 Stunden)

TLE

VeraltetSource: Space-Track

Epoche: May 5, 2024, 19:57 UTC

1 28817U 65108CE  24126.83181932  .00006295  00000-0  61157-2 0  9990
2 28817  26.3532 348.0334 6241564 216.8832  76.9983  3.60221241277641

Verfolge TITAN 3C TRANSTAGE DEB in Echtzeit mit AllMySat

Download on the App Store